Flag for Russia Weather past 2 weeks in Sochi, Russia

Now
66 °F

Overcast.


Feels Like: 66 °F
Forecast: 53 / 63 °F
Wind: 15 mph from Southeast

Location: Adler

Current Time: Feb 2, 2015 at 4:18:04 AM

Latest Report: Feb 2, 2015 at 3:30 AM


Visibility: N/A

Pressure: 29.83 "Hg

Humidity: 26%

Dew point: 30 °F

Location of SochiLocation

Historic Weather in Sochi — Graph

°F

Sochi temperature yesterday

Maximum temperature yesterday: 68 °F (at 10:00 PM)
Minimum temperature yesterday: 59 °F (at 3:30 AM)
Average temperature yesterday: 63 °F

Past Weeks' High & Low Weather Summary

 TemperatureHumidityPressure
High68 °F (Feb 1, 10:00 PM)93% (Jan 18, 3:00 AM)30.42 "Hg (Jan 18, 3:00 AM)
Low32 °F (Jan 18, 3:00 AM)20% (Feb 1, 7:00 AM)29.74 "Hg (Feb 1, 2:30 PM)
Average49 °F64%30.05 "Hg
* Reported Jan 18 3:00 AM — Feb 2 3:30 AM, Sochi, Weather by CustomWeather, © 2014

Note: Actual official high and low records may vary slightly from our data, if they occured in-between our weather recording intervals... More about our weather records

Advertising

Sochi weather history for previous 24 hours

 ConditionsComfort  
Time TempWeatherWind HumidityBarometerVisibility
3:30 AM
Feb 2
66 °FOvercast.15 mph26%29.83 "HgN/A
3:00 AM66 °FOvercast.17 mph28%29.83 "HgN/A
2:30 AM64 °FOvercast.17 mph30%29.83 "HgN/A
2:00 AM66 °FOvercast.15 mph28%29.83 "HgN/A
1:30 AM64 °FOvercast.15 mph30%29.83 "HgN/A
1:00 AM64 °FOvercast.17 mph30%29.80 "HgN/A
12:30 AM63 °FOvercast.15 mph34%29.80 "HgN/A
12:00 AM63 °FOvercast.13 mph37%29.80 "HgN/A
11:30 PM
Feb 1
64 °FPassing clouds.15 mph32%29.80 "HgN/A
11:00 PM63 °FPassing clouds.15 mph39%29.77 "HgN/A
10:30 PM66 °FPassing clouds.17 mph28%29.77 "HgN/A
10:00 PM68 °FPassing clouds.20 mph24%29.77 "HgN/A
9:30 PM66 °FMostly cloudy.20 mph26%29.77 "HgN/A
9:00 PM64 °FMostly cloudy.15 mph32%29.77 "HgN/A
8:30 PM63 °FOvercast.13 mph39%29.77 "HgN/A
8:00 PM66 °FPassing clouds.15 mph28%29.77 "HgN/A
7:30 PM64 °FPassing clouds.13 mph32%29.77 "HgN/A
7:00 PM66 °FPassing clouds.17 mph26%29.77 "HgN/A
6:30 PM66 °FPartly sunny.15 mph26%29.77 "HgN/A
6:00 PM63 °FPartly sunny.13 mph32%29.77 "HgN/A
5:30 PM63 °FPartly sunny.10 mph34%29.77 "HgN/A
5:00 PM64 °FPartly sunny.17 mph30%29.74 "HgN/A
4:30 PM64 °FPartly sunny.17 mph30%29.74 "HgN/A
4:00 PM64 °FPartly sunny.17 mph30%29.74 "HgN/A
3:30 PM64 °FPartly sunny.15 mph32%29.74 "HgN/A
3:00 PM66 °FPartly sunny.15 mph26%29.77 "HgN/A
2:30 PM64 °FBroken clouds.17 mph30%29.74 "HgN/A
2:00 PM63 °FPartly sunny.15 mph34%29.77 "HgN/A
1:30 PM64 °FPartly sunny.13 mph34%29.77 "HgN/A
1:00 PM66 °FOvercast.17 mph26%29.77 "HgN/A
12:30 PM63 °FOvercast.17 mph30%29.80 "HgN/A
12:00 PM59 °FOvercast.15 mph42%29.83 "HgN/A
11:30 AM64 °FOvercast.15 mph24%29.83 "HgN/A
11:00 AM63 °FOvercast.22 mph22%29.83 "HgN/A
10:30 AM61 °FOvercast.15 mph27%29.83 "HgN/A
10:00 AM59 °FOvercast.17 mph36%29.83 "HgN/A
9:30 AM61 °FOvercast.20 mph27%29.83 "HgN/A
9:00 AM61 °FOvercast.17 mph29%29.83 "HgN/A
8:30 AM61 °FOvercast.15 mph31%29.83 "HgN/A
8:00 AM61 °FPassing clouds.13 mph31%29.83 "HgN/A
7:30 AM63 °FPassing clouds.17 mph27%29.83 "HgN/A
7:00 AM63 °FPassing clouds.20 mph20%29.83 "HgN/A
6:30 AM63 °FPassing clouds.17 mph25%29.83 "HgN/A
6:00 AM63 °FPassing clouds.20 mph24%29.83 "HgN/A
5:30 AM63 °FPassing clouds.20 mph22%29.83 "HgN/A
5:00 AM61 °FPassing clouds.17 mph23%29.83 "HgN/A
4:30 AM61 °FPassing clouds.17 mph25%29.83 "HgN/A
4:00 AM61 °FPassing clouds.15 mph29%29.83 "HgN/A
Weather by CustomWeather, © 2014

See weather overviewHow to use our weather pages